VOI772 MMMX-MMAA

Flight info

Callsign VOI772
Flight time N/A
Altitude 26000
Route TEVOS2A TEVOS UT116 ANALU ANALU1B
Aircraft A20N/M-SDE2E3FGHIRWXY/LB1

Departure

Time 2026-05-05 03:05
Airport Mexico City Benito Juárez International Airport (MMMX)

Arrival

Time N/A
Airport General Juan N. Álvarez International Airport (MMAA)
Time Latitude Longitude Altitude Speed Heading
2026-05-05 02:45 19.43388 -99.08347 7323 ft 0 kts 329°
2026-05-05 02:56 19.43381 -99.08342 7323 ft 3 kts 329°
2026-05-05 02:57 19.43359 -99.08328 7323 ft 3 kts 330°
2026-05-05 02:57 19.43336 -99.08313 7323 ft 3 kts 330°
2026-05-05 02:57 19.43313 -99.08299 7323 ft 3 kts 330°
2026-05-05 02:57 19.43308 -99.08296 7323 ft 0 kts 330°
2026-05-05 03:01 19.43309 -99.08297 7323 ft 0 kts 310°
2026-05-05 03:01 19.43301 -99.08318 7322 ft 7 kts 240°
2026-05-05 03:01 19.43260 -99.08388 7323 ft 14 kts 238°
2026-05-05 03:01 19.43200 -99.08498 7322 ft 19 kts 239°
2026-05-05 03:02 19.43123 -99.08635 7322 ft 22 kts 238°
2026-05-05 03:02 19.43043 -99.08777 7323 ft 21 kts 239°
2026-05-05 03:02 19.42960 -99.08924 7322 ft 24 kts 239°
2026-05-05 03:02 19.42891 -99.09011 7323 ft 3 kts 193°
2026-05-05 03:03 19.42890 -99.09012 7323 ft 0 kts 193°
2026-05-05 03:03 19.42889 -99.09012 7323 ft 1 kts 193°
2026-05-05 03:03 19.42832 -99.08997 7323 ft 10 kts 143°
2026-05-05 03:03 19.42830 -99.08926 7323 ft 7 kts 62°
2026-05-05 03:04 19.42833 -99.08920 7323 ft 0 kts 60°
2026-05-05 03:04 19.42835 -99.08916 7323 ft 1 kts 60°
2026-05-05 03:04 19.42955 -99.08697 7323 ft 75 kts 57°
2026-05-05 03:04 19.43362 -99.07983 7323 ft 147 kts 60°
2026-05-05 03:05 19.43962 -99.06899 7484 ft 188 kts 58°
2026-05-05 03:05 19.44675 -99.05664 8098 ft 199 kts 58°
2026-05-05 03:05 19.45355 -99.04447 8794 ft 193 kts 59°
2026-05-05 03:05 19.46045 -99.03202 9232 ft 201 kts 59°
2026-05-05 03:06 19.46774 -99.01897 9532 ft 216 kts 59°
2026-05-05 03:06 19.47571 -99.00474 9839 ft 231 kts 58°
2026-05-05 03:06 19.48424 -98.98957 10035 ft 254 kts 58°
2026-05-05 03:06 19.49344 -98.97282 10407 ft 270 kts 64°
2026-05-05 03:07 19.49749 -98.95337 10911 ft 279 kts 94°
2026-05-05 03:07 19.49160 -98.93391 11607 ft 281 kts 124°
2026-05-05 03:07 19.47776 -98.91991 12306 ft 281 kts 146°
2026-05-05 03:07 19.46127 -98.90857 12980 ft 284 kts 147°
2026-05-05 03:08 19.44445 -98.89721 13613 ft 288 kts 147°
2026-05-05 03:08 19.42777 -98.88577 14251 ft 291 kts 147°
2026-05-05 03:08 19.41075 -98.87389 14896 ft 294 kts 146°
2026-05-05 03:08 19.39383 -98.86200 15523 ft 297 kts 146°
2026-05-05 03:09 19.37652 -98.84973 16152 ft 300 kts 146°
2026-05-05 03:09 19.35929 -98.83753 16767 ft 303 kts 146°
2026-05-05 03:09 19.34116 -98.82590 17370 ft 307 kts 156°
2026-05-05 03:09 19.32087 -98.81979 17934 ft 311 kts 174°
2026-05-05 03:10 19.29882 -98.81951 18252 ft 324 kts 183°
2026-05-05 03:10 19.27572 -98.82115 18527 ft 339 kts 185°
2026-05-05 03:10 19.25199 -98.82299 18789 ft 353 kts 184°
2026-05-05 03:10 19.22689 -98.82474 19046 ft 367 kts 184°
2026-05-05 03:11 19.20128 -98.82636 19289 ft 381 kts 184°
2026-05-05 03:11 19.17425 -98.82796 19527 ft 394 kts 183°
2026-05-05 03:11 19.15184 -98.82925 19711 ft 404 kts 183°
2026-05-05 03:12 19.14402 -98.82970 19774 ft 407 kts 183°
2026-05-05 03:12 19.11535 -98.83137 19989 ft 419 kts 183°
2026-05-05 03:13 19.08553 -98.83312 20199 ft 431 kts 183°
2026-05-05 03:13 19.05535 -98.83491 20393 ft 442 kts 184°
2026-05-05 03:13 19.02463 -98.83678 20597 ft 451 kts 184°
2026-05-05 03:13 18.99321 -98.83866 20949 ft 457 kts 183°
2026-05-05 03:14 18.96125 -98.84063 21398 ft 459 kts 184°